Cut Bank, MT

10:01 AM MST on December 12, 2019 (GMT -0700)
Cut Bank Municipal

Weather History for KCTB - October, 2019

Change the Weather History Date:

Tuesday, October 1, 2019

  Actual Average Record
Temperature  
Mean Temperature 14 °F 48 °F  
Max Temperature 27 °F 62 °F 88 °F (1992)
Min Temperature 1 °F 35 °F 14 °F (1950)
Degree Days  
Heating Degree Days 51 17  
Month to date heating degree days 17  
Since 1 July heating degree days 554  
Cooling Degree Days 0 0  
Month to date cooling degree days 0  
Year to date cooling degree days 161  
Moisture  
Dew Point 7 °F    
Average Humidity 86    
Maximum Humidity 96    
Minimum Humidity 76    
Precipitation  
Precipitation 0.00 in 0.03 in 0.51 in (1966)
Month to date precipitation 0.03  
Year to date precipitation 9.91  
Snow  
Snow - - - ()
Snow Depth -    
Sea Level Pressure  
Sea Level Pressure 30.20 in    
Wind  
Wind Speed 3 mph ()    
Max Wind Speed 12 mph    
Max Gust Speed -    
Visibility 3.6 miles    
Events Fog , Snow    
T = Trace of Precipitation, MM = Missing Value Source: Averaged Metar Reports

Daily Weather History Graph

Daily Weather History Graph

Search for Another Location

Airport or City:

Astronomy

Oct. 01, 2019 Rise Set
Actual Time 7:28 AM MDT 7:08 PM MDT
Civil Twilight 6:57 AM MDT 7:39 PM MDT
Nautical Twilight 6:20 AM MDT 8:16 PM MDT
Astronomical Twilight 5:43 AM MDT 8:53 PM MDT
Moon 11:03 AM MDT (10/1) 9:07 PM MDT (10/1)
Length of Visible Light 12h 42m
Length of Day
11h 39m
Waxing Crescent, 12% of the Moon is Illuminated
Oct 1
Waxing Crescent
Oct 5
First Quarter
Oct 13
Full
Oct 21
Last Quarter
Oct 27
New

Hourly Weather History & Observations

Time (MDT) Temp. Windchill Dew Point Humidity Pressure Visibility Wind Dir Wind Speed Gust Speed Precip Events Conditions
12:08 AM 9.0 °F 2.4 °F 6.1 °F 88% 30.12 in 0.5 mi North 3.5 mph - N/A Fog Light Freezing Fog
12:36 AM 9.0 °F - 7.0 °F 92% 30.11 in 0.2 mi Calm Calm - N/A Fog Light Freezing Fog
12:56 AM 7.0 °F -1.7 °F 3.0 °F 84% 30.27 in 0.2 mi North 4.6 mph - N/A Fog Light Freezing Fog
1:56 AM 8.1 °F 1.4 °F 3.0 °F 80% 30.26 in 0.2 mi NNE 3.5 mph - N/A   Haze
2:56 AM 8.1 °F - 5.0 °F 87% 30.26 in 0.2 mi Calm Calm - N/A Fog Light Freezing Fog
3:56 AM 6.1 °F -2.8 °F 1.9 °F 83% 30.27 in 0.2 mi North 4.6 mph - N/A Fog Light Freezing Fog
4:43 AM 6.1 °F -2.8 °F 1.9 °F 83% 30.11 in 0.5 mi North 4.6 mph - N/A Fog Light Freezing Fog
4:56 AM 6.1 °F -2.8 °F 1.9 °F 83% 30.27 in 0.2 mi North 4.6 mph - N/A Fog Light Freezing Fog
5:18 AM 5.0 °F -5.6 °F 1.0 °F 84% 30.10 in 0.5 mi North 5.8 mph - N/A Fog Light Freezing Fog
5:56 AM 5.0 °F -4.1 °F 1.0 °F 84% 30.28 in 0.5 mi North 4.6 mph - 0.00 in Fog , Snow Light Snow
6:26 AM 1.9 °F -5.6 °F -2.9 °F 80% 30.10 in 3.0 mi NNW 3.5 mph - 0.00 in Snow Light Snow
6:39 AM 1.9 °F - -2.9 °F 80% 30.11 in 1.2 mi Calm Calm - 0.00 in Snow Light Snow
6:48 AM 1.0 °F - -4.0 °F 79% 30.11 in 0.5 mi Calm Calm - 0.00 in   Haze
6:56 AM 3.0 °F - -2.0 °F 80% 30.30 in 0.5 mi Calm Calm - 0.00 in   Haze
7:03 AM 3.9 °F -3.4 °F -2.0 °F 76% 30.11 in 2.0 mi NNE 3.5 mph - N/A   Haze
7:10 AM 3.9 °F -3.4 °F -0.9 °F 80% 30.11 in 6.0 mi NE 3.5 mph - N/A   Haze
7:19 AM 1.9 °F -9.2 °F -2.0 °F 83% 30.11 in 9.0 mi NNE 5.8 mph - N/A   Scattered Clouds
7:56 AM 1.9 °F -7.6 °F -2.9 °F 80% 30.32 in 6.0 mi North 4.6 mph - N/A   Haze
8:16 AM 1.9 °F -7.6 °F -2.0 °F 83% 30.12 in 1.5 mi NNE 4.6 mph - N/A   Overcast
8:38 AM 3.9 °F -3.4 °F -0.0 °F 84% 30.12 in 3.0 mi NNE 3.5 mph - N/A   Overcast
8:56 AM 5.0 °F -5.6 °F 1.0 °F 84% 30.33 in 10.0 mi North 5.8 mph - N/A   Mostly Cloudy
9:10 AM 5.0 °F -5.6 °F 1.0 °F 84% 30.13 in 10.0 mi NNE 5.8 mph - N/A   Scattered Clouds
10:56 AM 14.0 °F 8.2 °F 12.0 °F 92% 30.30 in 10.0 mi North 3.5 mph - N/A   Clear
11:56 AM 17.1 °F - 12.9 °F 84% 30.30 in 10.0 mi Calm Calm - N/A   Clear
12:56 PM 19.0 °F 10.0 °F 15.1 °F 85% 30.32 in 10.0 mi SE 6.9 mph - N/A   Clear
1:56 PM 21.9 °F 14.5 °F 19.0 °F 89% 30.30 in 10.0 mi SE 5.8 mph - N/A   Clear
2:56 PM 25.0 °F 14.2 °F 21.0 °F 85% 30.27 in 10.0 mi SE 11.5 mph - N/A   Clear
3:56 PM 26.1 °F 16.8 °F 21.0 °F 81% 30.27 in 10.0 mi SE 9.2 mph - N/A   Clear
4:56 PM 27.0 °F 20.5 °F 21.0 °F 78% 30.27 in 10.0 mi East 5.8 mph - N/A   Clear
5:56 PM 25.0 °F 18.1 °F 19.9 °F 81% 30.29 in 10.0 mi ESE 5.8 mph - N/A   Clear
6:56 PM 21.9 °F 13.4 °F 18.0 °F 85% 30.30 in 10.0 mi ESE 6.9 mph - N/A   Clear
7:56 PM 19.9 °F 12.1 °F 17.1 °F 89% 30.32 in 10.0 mi SSE 5.8 mph - N/A   Clear
8:17 PM 18.0 °F 12.7 °F 17.1 °F 96% 30.12 in 1.8 mi SSW 3.5 mph - N/A   Clear
8:40 PM 18.0 °F 12.7 °F 16.0 °F 92% 30.12 in 0.8 mi SW 3.5 mph - N/A   Mist
8:56 PM 14.0 °F 5.1 °F 12.0 °F 92% 30.33 in 0.2 mi WNW 5.8 mph - N/A Fog Light Freezing Fog
9:12 PM 14.0 °F - 12.0 °F 92% 30.12 in 1.0 mi Calm Calm - N/A   Mist
9:26 PM 12.9 °F - 10.0 °F 88% 30.12 in 0.5 mi Calm Calm - N/A Fog Light Freezing Fog
9:34 PM 10.9 °F - 10.0 °F 96% 30.12 in 0.8 mi Calm Calm - N/A   Clear
9:44 PM 10.9 °F 2.9 °F 9.0 °F 92% 30.12 in 0.8 mi NW 4.6 mph - N/A   Mist
9:49 PM 10.9 °F -0.8 °F 8.1 °F 88% 30.12 in 1.0 mi NW 8.1 mph - N/A   Mist
9:56 PM 10.9 °F 2.9 °F 9.0 °F 92% 30.32 in 0.8 mi WNW 4.6 mph - N/A   Mist
10:16 PM 12.9 °F 3.8 °F 10.9 °F 92% 30.12 in 1.5 mi NNW 5.8 mph - N/A   Mostly Cloudy
10:33 PM 12.9 °F 6.9 °F 10.9 °F 92% 30.12 in 0.5 mi North 3.5 mph - N/A Fog Light Freezing Fog
10:56 PM 14.0 °F 8.2 °F 10.0 °F 84% 30.30 in 0.5 mi NNW 3.5 mph - N/A Fog Light Freezing Fog
11:06 PM 14.0 °F - 10.0 °F 84% 30.11 in 0.2 mi Calm Calm - N/A Fog Light Freezing Fog
11:56 PM 14.0 °F - 10.0 °F 84% 30.28 in 0.2 mi Calm Calm - N/A Fog Light Freezing Fog